Weather in Ustyug

Russia / Krasnoyarsk Krai     56°22′18″N   92°50′26″E
temp.,
°C
wind,
m/s
gust,
m/s
humid.,
%
clouds,
%
prec.,
mm/h
press.,
hPa
HPBL,
m
22 january, sat
sat2201:00−21sw00100100 0.1 10359
04:00−22w00100100 0.0 10359
07:00−23ssw0010098 0.1 10369
10:00−22s0010091 0.0 103613
13:00−15ese129264 0.0 1035135
16:00−16e119711 0.0 10359
19:00−22s0010064 0.0 10379
22:00−23s1110087 0.0 10389
23 january, sun
sun2301:00−25s1110081 0.0 10389
04:00−26s1110074 0.0 10389
07:00−26s1110059 0.0 103810
10:00−25s1110058 0.0 103824
13:00−17sse129126 0.0 1036139
16:00−16ese119629 0.0 103610
19:00−22s0110056 0.0 10379
22:00−24sw1110058 0.0 10379
24 january, mon
mon2401:00−24sw1110078 0.0 10389
04:00−25sw1110050 0.0 10379
07:00−25sw1110051 0.0 10389
10:00−21wsw119855 0.0 103834
13:00−14wsw248757 0.0 1037257
16:00−14w139295 0.0 1037119
19:00−15wsw3793100 0.0 1038231
22:00−14wsw3994100 0.2 1037432
25 january, tue
tue2501:00−14wsw4994100 0.7 1036462
04:00−13wsw4993100 0.4 1035485
07:00−13sw3994100 0.9 1035507
10:00−13wsw3892100 0.4 1035540
13:00−12wsw4789100 0.5 1034668
16:00−12wsw1595100 0.6 1033522
19:00−13wnw0097100 1.3 103321
22:00−13nnw0097100 0.7 103423
26 january, wed
wed2601:00−15nw1198100 1.2 103413
04:00−17wnw1198100 0.3 103514
07:00−19wnw1199100 0.4 103610
10:00−17wnw1196100 0.1 103651
13:00−15nw118897 0.1 1036304
16:00−15ene119468 0.0 103712
19:00−24wnw0010071 0.0 10399
22:00−26w11100100 0.0 10419